K9SCH Weather Reports


Display with metric or nautical units.
time (UTC)temp
F
wind
direction
speed
MPH
gust
MPH
rain 1hr
in
rain 24hr
in
rain mn
in
humidity
%
barometer
mb
20260902113015 78 135 3.0 6.0 0.00 0.00 0.00 70 1014.9
20260902112015 78 135 3.0 6.0 0.00 0.00 0.00 69 1014.9
20260902111015 79 135 3.0 5.0 0.00 0.00 0.00 69 1014.8
20260902110018 79 135 3.0 6.0 0.00 0.00 0.00 68 1015.0
20260902105017 79 135 4.0 8.0 0.00 0.00 0.00 68 1015.0
20260902104017 79 135 3.0 6.0 0.00 0.00 0.00 68 1015.0
20260902103038 79 135 3.0 5.0 0.00 0.00 0.00 68 1015.0
20260902102019 79 135 3.0 4.0 0.00 0.00 0.00 68 1014.9
20260902101020 79 113 3.0 6.0 0.00 0.00 0.00 68 1014.9
20260902100020 79 113 4.0 6.0 0.00 0.00 0.00 67 1014.8
20260902095017 79 113 2.0 4.0 0.00 0.00 0.00 67 1014.9
20260902094038 79 113 2.0 6.0 0.00 0.00 0.00 67 1015.0
20260902093019 79 113 2.0 4.0 0.00 0.00 0.00 67 1014.9
20260902092037 79 135 2.0 4.0 0.00 0.00 0.00 67 1014.8
20260902091017 79 135 2.0 4.0 0.00 0.00 0.00 68 1014.7
20260902090022 79 135 1.0 3.0 0.00 0.00 0.00 67 1014.7
20260902085017 80 135 1.0 4.0 0.00 0.00 0.00 66 1014.7
20260902084015 80 113 2.0 4.0 0.00 0.00 0.00 66 1014.7
20260902083017 80 113 2.0 3.0 0.00 0.00 0.00 65 1014.8
20260902082017 80 113 3.0 5.0 0.00 0.00 0.00 66 1014.8
20260902081017 79 135 2.0 5.0 0.00 0.00 0.00 67 1014.7
20260902080017 79 135 3.0 4.0 0.00 0.00 0.00 68 1014.6
20260902075017 79 135 2.0 4.0 0.00 0.00 0.00 69 1014.6
20260902074018 80 135 2.0 3.0 0.00 0.00 0.00 67 1014.7
20260902073019 80 135 2.0 3.0 0.00 0.00 0.00 66 1014.7
20260902072037 80 113 1.0 2.0 0.00 0.00 0.00 64 1014.6
20260902071017 81 113 2.0 3.0 0.00 0.00 0.00 63 1014.5
20260902070017 81 113 3.0 4.0 0.00 0.00 0.00 62 1014.5
20260902065016 81 113 3.0 4.0 0.00 0.00 0.00 61 1014.4
20260902064018 81 113 3.0 5.0 0.00 0.00 0.00 61 1014.4
20260902063018 81 113 2.0 4.0 0.00 0.00 0.00 61 1014.5
20260902062016 82 113 3.0 5.0 0.00 0.00 0.00 61 1014.6
20260902061019 82 90 3.0 5.0 0.00 0.00 0.00 61 1014.5
20260902060018 82 113 2.0 4.0 0.00 0.00 0.00 61 1014.5
20260902055017 82 90 3.0 4.0 0.00 0.00 0.00 60 1014.4
20260902054043 82 113 3.0 4.0 0.00 0.00 0.00 60 1014.4
20260902053016 82 113 4.0 6.0 0.00 0.00 0.00 60 1014.3
20260902052018 82 90 3.0 6.0 0.00 0.00 0.00 61 1014.5
20260902051018 82 113 3.0 5.0 0.00 0.00 0.00 62 1014.5
20260902050016 82 113 2.0 4.0 0.00 0.00 0.00 62 1014.3
20260902045018 82 113 3.0 5.0 0.00 0.00 0.00 61 1014.6
20260902044036 83 113 3.0 5.0 0.00 0.00 0.00 60 1014.5
20260902043018 83 113 2.0 2.0 0.00 0.00 0.00 61 1014.4
20260902042018 83 113 3.0 4.0 0.00 0.00 0.00 61 1014.3
20260902041017 83 113 2.0 3.0 0.00 0.00 0.00 61 1014.2
20260902040019 84 0.0 1.0 0.00 0.00 0.00 61 1014.1
20260902035016 84 0.0 0.0 0.00 0.00 0.00 61 1014.0
20260902034036 84 0.0 1.0 0.00 0.00 0.00 61 1013.8
20260902033018 85 0.0 1.0 0.00 0.00 0.00 61 1013.7
20260902032016 85 0.0 1.0 0.00 0.00 0.00 60 1013.5
20260902031018 84 0.0 0.0 0.00 0.00 0.00 60 1013.2
20260902030016 85 0.0 0.0 0.00 0.00 0.00 63 1013.1
20260902025017 86 0.0 0.0 0.00 0.00 0.00 62 1012.8
20260902024020 86 0.0 0.0 0.00 0.00 0.00 57 1012.7
20260902023038 87 0.0 0.0 0.00 0.00 0.00 57 1012.7
20260902022018 88 0.0 0.0 0.00 0.00 0.00 55 1012.5
20260902021016 89 0.0 0.0 0.00 0.00 0.00 47 1012.5
20260902020018 90 0.0 0.0 0.00 0.00 0.00 43 1012.2
20260902015016 91 0.0 0.0 0.00 0.00 0.00 41 1012.1
20260902014017 92 0.0 1.0 0.00 0.00 0.00 40 1012.0
20260902013016 93 248 2.0 5.0 0.00 0.00 0.00 39 1012.2
20260902012019 93 0.0 3.0 0.00 0.00 0.00 38 1012.3
20260902011017 93 270 1.0 5.0 0.00 0.00 0.00 39 1012.4
20260902010016 94 270 1.0 5.0 0.00 0.00 0.00 40 1012.5
20260902005016 94 270 2.0 7.0 0.00 0.00 0.00 40 1012.6
20260902004016 94 0.0 1.0 0.00 0.00 0.00 40 1012.6
20260902003016 94 270 1.0 7.0 0.00 0.00 0.00 40 1012.8
20260902002017 94 248 4.0 7.0 0.00 0.00 0.00 40 1012.8
20260902001016 94 225 4.0 6.0 0.00 0.00 0.00 40 1012.8
20260902000018 95 0.0 3.0 0.00 0.00 0.00 39 1013.0
20260901235038 94 270 1.0 4.0 0.00 0.00 0.00 39 1012.9
20260901234037 94 270 5.0 11.0 0.00 0.00 0.00 39 1013.1
20260901233038 95 248 1.0 7.0 0.00 0.00 0.00 40 1013.2
20260901232018 94 0.0 1.0 0.00 0.00 0.00 40 1013.1
20260901231017 94 270 3.0 8.0 0.00 0.00 0.00 40 1013.3
20260901230018 95 338 1.0 5.0 0.00 0.00 0.00 38 1013.5
20260901225016 95 135 1.0 6.0 0.00 0.00 0.00 38 1013.6
20260901224016 95 158 1.0 4.0 0.00 0.00 0.00 38 1013.7
20260901223037 95 135 1.0 4.0 0.00 0.00 0.00 38 1013.9
20260901222036 95 135 1.0 5.0 0.00 0.00 0.00 38 1013.9
20260901221018 95 203 2.0 11.0 0.00 0.00 0.00 38 1013.9
20260901220017 94 0.0 1.0 0.00 0.00 0.00 41 1014.0
20260901215023 94 158 2.0 6.0 0.00 0.00 0.00 41 1014.2
20260901214016 93 293 3.0 5.0 0.00 0.00 0.00 43 1014.4
20260901213017 94 0.0 3.0 0.00 0.00 0.00 41 1014.8
20260901212016 93 135 2.0 6.0 0.00 0.00 0.00 42 1014.8
20260901211036 93 158 2.0 7.0 0.00 0.00 0.00 42 1015.0
20260901210038 92 248 4.0 7.0 0.00 0.00 0.00 43 1015.2
20260901205037 92 338 2.0 5.0 0.00 0.00 0.00 43 1015.3
20260901204018 92 270 1.0 3.0 0.00 0.00 0.00 44 1015.6
20260901203017 94 248 1.0 6.0 0.00 0.00 0.00 42 1015.7
20260901202016 93 0.0 0.0 0.00 0.00 0.00 44 1015.8
20260901201018 91 248 1.0 5.0 0.00 0.00 0.00 45 1015.9
20260901200017 92 248 3.0 6.0 0.00 0.00 0.00 46 1016.1
20260901195015 91 45 2.0 6.0 0.00 0.00 0.00 47 1016.1
20260901194016 91 270 4.0 7.0 0.00 0.00 0.00 46 1016.3
20260901193017 92 0.0 1.0 0.00 0.00 0.00 45 1016.4
20260901192035 91 135 3.0 6.0 0.00 0.00 0.00 45 1016.5
20260901191035 90 270 3.0 6.0 0.00 0.02 0.00 46 1016.5
20260901190016 90 248 2.0 4.0 0.00 0.04 0.00 47 1016.7
20260901185037 89 270 2.0 6.0 0.00 0.06 0.00 47 1016.8
20260901184017 90 248 3.0 6.0 0.00 0.09 0.00 47 1016.9
20260901183018 89 270 3.0 5.0 0.00 0.14 0.00 48 1016.9
20260901182018 91 203 1.0 5.0 0.00 0.19 0.00 45 1017.1
20260901181017 91 158 2.0 6.0 0.00 0.24 0.00 46 1017.2
20260901180016 90 203 2.0 4.0 0.00 0.26 0.00 48 1017.2
20260901175016 89 0.0 3.0 0.00 0.28 0.00 50 1017.3
20260901174017 88 203 1.0 5.0 0.00 0.29 0.00 51 1017.3
20260901173016 86 248 4.0 6.0 0.00 0.30 0.00 52 1017.2
20260901172015 86 248 1.0 4.0 0.00 0.31 0.00 55 1017.3
20260901171016 86 225 2.0 5.0 0.00 0.32 0.00 56 1017.4
20260901170038 85 248 2.0 4.0 0.00 0.32 0.00 56 1017.2
20260901165015 86 203 2.0 6.0 0.00 0.32 0.00 57 1017.3
20260901164017 85 225 3.0 7.0 0.00 0.34 0.00 57 1017.2
20260901163037 86 203 4.0 7.0 0.00 0.34 0.00 55 1017.2
20260901162015 86 0.0 4.0 0.00 0.34 0.00 56 1017.2
20260901161015 86 0.0 0.0 0.00 0.34 0.00 56 1017.1
20260901155017 84 135 1.0 4.0 0.00 0.34 0.00 57 1017.0
20260901153015 83 135 2.0 4.0 0.00 0.34 0.00 57 1016.9
20260901152017 83 0.0 1.0 0.00 0.34 0.00 58 1016.9
20260901151015 83 0.0 1.0 0.00 0.34 0.00 61 1016.9
20260901150016 81 0.0 1.0 0.00 0.34 0.00 63 1016.7
20260901145035 81 0.0 1.0 0.00 0.34 0.00 66 1016.7
20260901144017 79 0.0 1.0 0.00 0.34 0.00 69 1016.6
20260901143015 78 0.0 2.0 0.00 0.34 0.00 72 1016.4
20260901142039 76 113 2.0 4.0 0.00 0.34 0.00 74 1016.4
20260901141015 76 113 3.0 4.0 0.00 0.34 0.00 76 1016.3
20260901140018 74 113 2.0 4.0 0.00 0.35 0.00 78 1016.2
20260901135017 73 113 2.0 4.0 0.00 0.36 0.00 79 1016.2
20260901134016 73 90 2.0 3.0 0.00 0.38 0.00 81 1016.1
20260901133019 72 68 1.0 3.0 0.00 0.41 0.00 83 1016.1
20260901132017 71 90 3.0 4.0 0.00 0.44 0.00 83 1016.1
20260901131018 71 90 1.0 3.0 0.00 0.47 0.00 83 1016.0
20260901130016 71 0.0 0.0 0.00 0.50 0.00 83 1015.9
20260901125015 71 0.0 0.0 0.00 0.54 0.00 83 1016.0
20260901124015 71 0.0 0.0 0.00 0.57 0.00 83 1016.0
20260901123017 71 0.0 0.0 0.00 0.59 0.00 83 1015.9
20260901122017 71 0.0 0.0 0.00 0.60 0.00 83 1015.7
20260901121015 71 0.0 0.0 0.00 0.61 0.00 83 1015.5
20260901120015 71 90 1.0 2.0 0.00 0.62 0.00 82 1015.5
20260901115015 71 90 1.0 3.0 0.00 0.62 0.00 82 1015.4
20260901114018 71 90 2.0 3.0 0.00 0.62 0.00 83 1015.2